Weather History for KCDR - November, 2011

Change the Weather History Date:

Sunday, November 27, 2011

  Actual Average Record
Temperature  
Mean Temperature 35 °F 28 °F  
Max Temperature 55 °F 42 °F 72 °F (1949)
Min Temperature 14 °F 15 °F -12 °F (1985)
Degree Days  
Heating Degree Days 30 37  
Month to date heating degree days 790 817  
Since 1 July heating degree days 1388 1570  
Moisture  
Dew Point 20 °F    
Average Humidity 55    
Maximum Humidity 81    
Minimum Humidity 29    
Precipitation  
Precipitation 0.00 in 0.01 in 0.70 in (1993)
Month to date precipitation 0.52 0.57  
Year to date precipitation 17.55 17.48  
Sea Level Pressure  
Sea Level Pressure 30.32 in    
Wind  
Wind Speed 6 mph (SW)    
Max Wind Speed 15 mph    
Max Gust Speed 18 mph    
Visibility 10 miles    
Events      
T = Trace of Precipitation, MM = Missing Value Source: NWS Daily Summary

Daily Weather History Graph

Daily Weather History Graph

Search for Another Location

Airport or City:

Trip Planner

Search our weather history database for the weather conditions in past years. The results will help you decide how hot, cold, wet, or windy it might be!

Date:

Astronomy

Nov. 27, 2011 Rise Set
Actual Time 6:58 AM MST 4:20 PM MST
Civil Twilight 6:27 AM MST 4:52 PM MST
Nautical Twilight 5:52 AM MST 5:27 PM MST
Astronomical Twilight 5:18 AM MST 6:01 PM MST
Moon 9:25 AM MST (11/27) 7:01 PM MST (11/27)
Length of Visible Light 10h 25m
Length of Day
9h 22m
Waxing Crescent, 9% of the Moon is Illuminated
Nov 27
Waxing Crescent
Dec 2
First Quarter
Dec 10
Full
Dec 17
Last Quarter
Dec 24
New

Hourly Weather History & Observations

Time (MST) Temp. Windchill Dew Point Humidity Pressure Visibility Wind Dir Wind Speed Gust Speed Precip Events Conditions
12:53 AM 16.0 °F 7.4 °F 10.9 °F 81% 30.55 in 10.0 mi SSW 5.8 mph - N/A   Clear
1:53 AM 15.1 °F 5.2 °F 10.9 °F 84% 30.55 in 10.0 mi SW 6.9 mph - N/A   Clear
3:53 AM 15.1 °F 5.2 °F 10.9 °F 84% 30.51 in 10.0 mi WSW 6.9 mph - N/A   Clear
4:53 AM 18.0 °F 8.7 °F 12.0 °F 78% 30.48 in 10.0 mi WSW 6.9 mph - N/A   Clear
5:53 AM 21.0 °F 13.4 °F 12.9 °F 71% 30.47 in 10.0 mi SW 5.8 mph - N/A   Clear
6:53 AM 21.9 °F 12.5 °F 12.9 °F 68% 30.47 in 10.0 mi SW 8.1 mph - N/A   Clear
7:53 AM 26.1 °F 19.4 °F 18.0 °F 71% 30.47 in 10.0 mi WSW 5.8 mph - N/A   Clear
8:53 AM 34.0 °F 28.0 °F 19.9 °F 56% 30.45 in 10.0 mi WSW 6.9 mph - N/A   Clear
9:53 AM 41.0 °F 36.4 °F 19.0 °F 41% 30.43 in 10.0 mi WSW 6.9 mph - N/A   Clear
10:53 AM 45.0 °F 40.6 °F 19.0 °F 36% 30.38 in 10.0 mi WSW 8.1 mph - N/A   Clear
11:53 AM 50.0 °F - 19.9 °F 31% 30.33 in 10.0 mi West 11.5 mph - N/A   Clear
12:53 PM 52.0 °F - 21.9 °F 31% 30.30 in 10.0 mi SW 4.6 mph - N/A   Clear
1:53 PM 54.0 °F - 23.0 °F 30% 30.25 in 10.0 mi South 4.6 mph - N/A   Clear
2:53 PM 54.0 °F - 25.0 °F 33% 30.24 in 10.0 mi South 6.9 mph - N/A   Clear
3:53 PM 48.9 °F - 28.9 °F 46% 30.22 in 10.0 mi South 6.9 mph - N/A   Clear
4:53 PM 41.0 °F - 27.0 °F 57% 30.21 in 10.0 mi Calm Calm - N/A   Clear
5:53 PM 37.0 °F 31.6 °F 27.0 °F 67% 30.22 in 10.0 mi WSW 6.9 mph - N/A   Clear
6:53 PM 33.1 °F 26.1 °F 25.0 °F 72% 30.21 in 10.0 mi SW 8.1 mph - N/A   Clear
7:53 PM 33.1 °F 30.0 °F 25.0 °F 72% 30.18 in 10.0 mi WSW 3.5 mph - N/A   Clear
8:53 PM 27.0 °F - 21.9 °F 81% 30.17 in 10.0 mi Calm Calm - N/A   Clear
9:53 PM 27.0 °F 21.6 °F 21.9 °F 81% 30.14 in 10.0 mi WSW 4.6 mph - N/A   Clear
10:53 PM 30.9 °F 21.7 °F 21.9 °F 69% 30.13 in 10.0 mi WSW 11.5 mph - N/A   Clear
11:53 PM 30.0 °F 22.4 °F 21.9 °F 72% 30.11 in 10.0 mi WSW 8.1 mph - N/A   Clear